Zurück zum Katalog

STARLINK-37965

AktivKommunikationSSO
NORAD 69753·PAYLOAD·🇺🇸 United States

Gestartet Jul 2, 2026 von Vandenberg Space Force Base

Loading…

Nächste Überflüge (nächste 24 Stunden)

TLE

AktuellSource: CelesTrak SupGP

Epoche: Sep 15, 2026, 04:02 UTC

1 69753C 26150Q   26258.16854167 -.00051579  00000+0 -16011-2 0  2582
2 69753  97.2846  97.2099 0001800  90.7651 186.9961 15.33466208    10

Verfolge STARLINK-37965 in Echtzeit mit AllMySat

Download on the App Store